Tracking 32577 objects as of 14-Dec-2025
HD Live streaming from Space Station
objects crossing your sky now

GALILEO 23 (2C9)

Track GALILEO 23 (2C9) now!
GALILEO 23 (2C9) is classified as:


NORAD ID: 43566
Int'l Code: 2018-060C
Perigee: 23,211.9 km
Apogee: 23,246.3 km
Inclination: 57.2 °
Period: 844.7 minutes
Semi major axis: 29600 km
RCS: Unknown
Launch date: July 25, 2018
Source: European Space Agency (ESA)
Launch site: FRENCH GUIANA (FRGUI)
Your satellite tracking list
Your tracking list is empty




NASA's NSSDC Master Catalog

Two Line Element Set (TLE):
1 43566U 18060C   25346.97124941 -.00000086  00000-0  00000-0 0  9991
2 43566  57.2304 346.8158 0005813 287.2893  72.6656  1.70475808 46011
Source of the keplerian elements: AFSPC